Temp
22 20 18 18 18 18 19 19 20 19 19 19 18 18 18 19 19 19 18 18 18 17 17 17 17 17 17 17 18 18 17 16 16 17 16 16 16 15 16 17 18 17 16
22 20 18 18 18 18 19 19 19 19 19 18 19 19 19 19 19 18 18 18 18 17 17 17 17 17 17 18 17 17 17 17 17 17 18 17 15 15 15 15 15 15 16
21 20 18 17 18 18 19 19 19 19 19 19 19 19 19 18 18 18 18 18 18 18 17 17 17 16 17 18 18 18 17 17 17 18 19 19 17 15 15 14 15 14 14
20 20 19 18 18 19 19 19 19 18 19 18 19 18 18 17 18 18 18 18 18 17 17 17 16 17 18 18 18 17 17 17 17 19 19 19 17 15 15 14 14 14 15
20 20 19 18 19 19 19 19 18 18 18 18 18 17 17 18 18 18 18 18 17 17 17 17 18 18 18 18 18 17 17 17 18 19 18 18 17 15 14 15 15 14 14
19 20 17 18 19 19 19 18 17 16 17 17 17 17 18 18 18 18 18 18 18 18 18 18 18 18 18 18 17 17 17 18 19 19 18 17 16 14 14 14 13 13 13
18 18 16 17 18 17 17 16 16 17 17 17 17 17 17 18 18 18 18 19 19 19 19 18 18 18 17 17 17 17 17 18 19 19 18 17 15 14 14 13 13 13 13
17 17 16 16 16 16 16 16 17 17 18 17 17 17 18 17 18 18 18 19 19 19 19 18 18 17 17 17 17 17 17 17 19 19 18 16 14 14 13 13 13 13 12
16 16 16 16 16 16 15 16 17 17 17 17 17 17 18 18 18 18 18 18 18 18 18 18 18 17 17 17 17 17 17 17 18 18 18 17 14 14 13 13 12 12 12
16 15 15 15 15 15 16 17 17 17 17 18 18 17 17 18 18 18 18 18 18 18 18 17 17 17 17 16 16 16 16 17 18 18 17 15 13 13 13 13 12 12 12
14 14 13 13 13 13 15 15 16 17 17 18 18 17 18 17 17 18 17 17 17 17 17 17 17 17 17 16 16 16 17 17 17 17 17 14 13 13 12 12 12 12 11
12 12 12 12 12 14 15 15 16 16 17 17 18 17 18 18 18 18 16 17 17 17 17 17 16 16 17 17 16 16 17 16 17 17 15 14 13 13 12 12 11 11 11
11 10 11 11 12 12 14 15 15 15 16 16 17 17 17 17 17 17 16 16 16 16 16 16 16 17 16 16 16 16 16 16 16 16 14 14 13 13 12 12 11 11 11
11 11 10 10 11 13 14 15 16 17 17 17 17 17 17 18 17 18 18 17 17 17 16 16 16 15 15 15 15 14 14 15 15 15 14 13 13 13 13 12 11 11 11
12 12 11 12 12 14 14 15 14 15 16 17 16 17 18 18 17 18 17 17 17 16 16 16 15 15 14 14 14 14 14 14 13 14 15 12 13 13 13 13 11 11 10
12 12 12 12 13 13 14 15 15 15 16 16 17 17 16 17 17 17 16 16 16 16 16 16 16 15 15 14 14 13 13 13 13 13 14 13 12 12 12 12 11 11 10
14 13 13 14 15 16 16 16 16 16 16 17 17 16 16 17 16 16 16 16 16 15 15 15 14 14 15 14 14 13 13 12 13 12 13 13 13 11 11 11 11 10 10
16 16 15 15 15 15 16 16 17 17 17 17 17 16 15 15 15 15 15 15 15 15 15 15 15 15 15 14 14 13 13 12 12 12 12 12 12 12 11 10 10 10 9
18 17 16 15 16 16 16 16 16 16 17 17 16 16 15 15 14 15 15 15 14 15 14 14 14 15 14 14 14 13 12 12 11 11 11 11 10 11 11 10 9 9 9
18 18 17 16 16 16 16 16 16 17 17 17 16 16 15 15 15 15 15 14 14 14 14 14 14 14 14 14 14 13 12 11 11 11 11 11 10 10 10 10 10 10 8
18 18 17 17 17 16 16 16 17 17 17 16 15 15 14 15 14 15 15 13 14 14 14 13 13 13 13 12 13 13 12 10 10 11 10 10 10 9 9 9 9 10 9
19 18 18 18 17 17 17 17 18 18 17 17 16 15 14 15 14 14 14 14 14 13 12 12 13 13 13 12 13 13 16 13 10 10 10 10 9 9 9 8 8 8 8
20 19 18 18 18 18 18 18 17 17 17 16 14 14 14 14 14 14 13 14 13 13 13 12 12 12 13 11 10 12 14 16 14 12 9 9 9 9 8 8 7 7 7
20 20 19 19 19 18 18 18 17 18 18 17 15 14 14 13 13 13 13 13 12 13 12 12 12 12 11 11 9 9 10 12 14 14 11 9 9 8 8 7 7 7 6
21 20 19 19 19 18 17 18 17 18 19 19 16 15 14 13 12 12 12 12 12 12 12 11 10 10 10 9 9 11 11 11 10 11 12 12 11 10 8 7 7 6 6
22 20 19 19 19 18 17 16 17 17 18 15 15 14 13 12 12 11 11 11 11 11 10 10 10 9 8 7 10 11 11 11 12 11 11 11 10 9 8 7 6 6 6
Height
790 795 800 803 805 808 810 813 816 819 822 824 828 831 834 835 837 839 842 844 846 848 848 848 850 852 854 854 854 854 854 855 854 854 856 856 857 856 854 853 854 853 852
790 796 800 803 806 809 812 815 817 820 823 827 829 832 835 837 839 840 844 845 848 850 851 850 853 854 856 857 858 859 858 857 857 856 858 858 859 860 857 856 856 855 855
791 796 801 803 806 809 813 817 819 823 825 828 831 834 836 839 842 842 846 848 849 851 853 854 857 857 858 860 861 860 860 859 860 860 862 863 862 863 861 860 860 859 858
792 797 803 804 807 811 815 818 820 824 827 831 833 837 838 842 843 846 847 850 852 853 856 857 859 861 861 862 863 863 863 864 863 864 863 865 866 865 864 863 863 862 861
793 798 803 806 809 813 816 820 823 825 829 832 835 838 840 844 846 848 850 852 854 858 859 861 862 863 864 864 865 866 866 867 866 868 867 868 869 869 868 867 867 865 864
794 798 803 807 812 816 819 821 824 828 830 833 838 839 842 846 848 850 853 854 856 859 861 863 864 866 867 867 868 869 869 868 870 869 870 871 871 871 870 870 868 868 868
794 798 803 808 813 818 822 824 826 830 832 836 841 843 845 849 852 853 856 858 859 861 864 866 867 868 871 870 872 872 872 871 871 872 872 873 874 873 873 872 869 870 870
795 799 805 811 816 822 825 827 828 832 834 839 842 845 848 852 853 857 859 862 863 865 866 867 870 872 873 873 873 875 874 874 874 874 874 876 877 876 875 875 873 873 871
798 798 807 814 819 825 830 830 831 835 836 841 844 848 851 854 856 860 863 864 867 868 869 870 872 874 876 876 876 876 876 876 877 877 877 877 878 877 876 877 876 875 873
799 792 803 813 820 824 832 830 837 838 838 842 847 853 855 858 860 862 866 867 869 870 872 873 874 876 878 879 877 878 877 877 879 878 879 881 881 878 878 875 878 876 875
800 803 809 812 822 830 837 840 840 842 843 844 850 853 859 864 865 866 867 870 871 872 873 875 876 878 880 879 878 878 879 880 880 879 880 882 881 878 877 877 877 877 876
803 807 811 818 823 833 836 843 843 847 850 848 852 856 862 865 867 867 868 871 873 874 876 877 879 878 881 881 881 880 880 880 881 880 880 881 881 879 878 877 878 878 877
807 810 814 818 824 829 833 842 844 850 849 851 853 859 862 864 867 870 870 873 874 876 878 879 881 881 882 882 882 882 880 881 881 880 880 879 880 880 880 879 878 878 878
814 817 821 824 829 836 840 844 846 849 852 854 858 861 861 864 866 869 871 873 875 875 878 878 881 881 882 882 882 882 882 882 881 881 881 879 879 879 880 879 878 878 879
817 821 827 830 834 836 840 844 847 853 853 856 861 860 863 863 865 868 870 872 874 874 877 878 880 881 882 881 882 883 883 882 881 880 881 879 878 878 878 879 878 879 879
820 824 828 833 838 841 845 848 849 849 852 858 861 860 862 862 864 867 869 871 872 875 876 877 880 880 881 882 881 881 882 881 881 881 881 880 878 876 876 877 878 878 878
825 829 833 835 838 841 843 846 850 852 855 857 859 860 861 862 864 866 868 870 872 873 874 876 878 879 879 880 880 881 881 880 881 880 880 879 877 875 875 875 876 877 877
824 828 833 837 839 841 843 846 849 850 853 855 857 858 860 861 862 865 867 869 870 871 873 876 877 878 877 879 880 880 880 879 879 878 879 877 876 875 875 875 875 875 875
823 827 830 834 837 840 843 845 847 850 851 852 855 856 858 859 860 863 865 866 868 870 871 874 876 876 877 878 878 879 879 879 878 878 877 877 876 875 874 874 875 874 874
821 825 829 833 836 839 841 844 846 848 850 852 854 855 856 857 859 862 864 864 866 869 869 872 874 874 876 877 877 877 877 876 876 877 877 876 874 874 874 873 872 871 872
819 824 827 830 833 836 838 840 843 845 848 851 851 853 854 856 857 860 862 862 865 866 868 870 873 873 875 876 876 874 874 875 874 873 873 873 872 872 872 871 870 869 869
814 818 822 825 829 832 835 838 840 843 844 846 849 851 851 853 855 857 859 860 863 864 868 869 870 872 874 875 874 873 866 868 871 871 871 870 870 870 869 868 868 868 868
807 812 816 820 824 827 831 833 837 839 841 843 846 846 848 850 852 854 855 858 860 862 865 866 867 868 870 872 873 873 864 860 862 862 867 867 867 867 866 865 865 865 864
802 807 811 815 819 822 826 828 832 833 834 838 840 842 844 847 850 850 851 854 856 858 861 863 863 864 866 867 867 867 868 865 860 857 860 862 863 863 862 863 862 861 862
795 801 806 810 813 817 821 825 828 829 829 831 837 838 840 843 846 848 850 852 854 854 856 860 861 861 862 864 864 863 864 863 863 862 856 855 857 857 858 859 859 859 859
787 793 798 803 806 812 818 822 825 825 826 828 831 832 836 839 842 845 848 850 853 853 854 857 858 858 858 861 862 860 859 858 856 856 855 853 853 854 855 856 856 855 855
Wind_Speed
22 26 27 29 31 34 36 37 35 33 30 29 27 26 25 25 24 23 23 25 25 24 23 25 25 23 23 24 25 25 25 25 25 25 23 23 22 21 20 21 19 19 19
28 29 30 31 32 33 37 35 34 32 31 29 27 27 27 27 27 28 26 26 24 21 22 24 24 25 24 25 25 25 25 25 26 21 22 23 23 22 22 22 21 19 19
28 30 30 33 33 33 35 34 33 31 29 28 29 30 30 29 28 29 27 24 24 22 22 23 23 24 24 24 24 24 24 25 26 24 19 18 20 20 21 22 22 22 21
27 29 29 34 34 35 35 34 32 29 29 31 32 32 31 30 30 28 27 24 23 22 22 23 24 23 24 23 23 23 23 24 23 18 17 17 18 19 19 19 20 20 20
29 30 28 34 34 34 33 31 30 31 34 34 33 33 33 31 30 28 26 25 25 24 24 24 24 23 23 22 22 20 21 22 20 16 17 16 16 17 17 17 18 19 19
29 27 27 32 32 31 31 31 32 34 35 35 33 34 34 32 31 29 26 26 26 25 24 24 24 23 21 21 20 18 19 19 14 16 16 17 16 16 16 16 17 17 17
28 28 30 31 30 29 31 31 35 35 35 35 33 33 33 31 29 27 26 26 25 24 23 23 23 22 20 20 18 16 17 16 14 14 15 15 14 15 15 15 16 15 16
27 27 32 29 28 27 29 34 35 34 36 36 34 33 33 31 29 26 25 26 26 25 26 25 23 20 18 18 16 14 15 14 12 13 13 13 13 13 14 14 14 14 15
20 34 32 29 25 24 27 31 33 34 36 36 34 33 32 30 28 26 25 25 25 25 25 24 21 19 17 15 14 13 13 14 11 11 10 9 9 11 12 12 13 14 14
28 29 37 33 30 27 22 28 30 33 36 35 33 31 29 27 27 25 23 22 21 22 21 20 19 17 15 13 12 11 11 13 9 9 9 7 7 8 9 11 11 12 13
31 35 35 36 33 27 23 21 27 29 31 34 32 30 27 21 20 19 18 19 18 18 18 16 16 15 12 10 10 9 9 7 7 8 7 5 3 5 7 8 9 9 11
29 32 37 36 32 24 19 18 19 21 22 29 29 24 19 18 16 17 18 18 17 16 15 14 14 13 9 6 5 7 6 6 7 7 6 3 3 3 5 6 7 8 9
32 31 39 41 36 29 19 15 17 17 24 22 23 19 17 16 17 15 15 13 14 13 12 12 9 7 6 5 5 5 6 7 6 6 5 1 2 1 3 4 6 7 8
31 32 39 43 35 30 28 18 17 16 17 16 16 17 16 15 14 13 12 12 12 11 11 10 8 9 7 7 6 6 5 5 6 6 5 3 1 3 1 4 5 6 7
22 25 29 28 28 34 28 24 11 12 14 14 17 15 15 14 13 12 12 11 11 12 10 10 10 8 7 6 5 4 5 6 7 6 5 6 4 4 5 6 6 6 6
21 26 31 31 30 32 23 19 14 12 14 16 16 14 13 12 11 11 10 10 10 10 10 9 8 6 5 4 4 3 4 5 5 5 5 4 6 4 2 4 8 7 5
31 32 31 28 24 20 16 14 14 15 17 16 13 12 11 12 11 11 10 10 10 10 10 9 7 6 5 3 3 3 3 3 3 3 3 4 5 7 2 4 5 5 5
31 28 26 24 22 15 13 14 15 16 16 15 14 11 11 12 12 12 11 11 12 11 10 8 7 5 3 1 1 1 1 2 2 2 1 2 3 2 2 5 6 6 6
24 25 22 24 22 15 14 12 13 14 15 15 13 13 12 13 13 12 12 13 13 11 10 9 7 4 3 1 1 2 3 4 3 2 2 1 1 1 1 3 7 8 9
23 24 25 23 18 15 14 12 13 14 15 14 15 14 14 12 15 13 13 14 13 12 11 9 8 5 3 1 2 4 5 5 5 6 5 4 3 2 4 6 7 8 10
25 25 26 24 20 18 16 17 15 16 17 15 13 13 13 13 14 15 14 14 14 12 11 10 8 5 3 1 3 6 7 8 8 8 7 6 5 5 6 7 8 7 9
27 28 28 28 24 21 18 17 15 16 16 15 14 13 14 14 16 15 16 15 14 13 12 10 8 5 3 2 3 7 5 7 9 10 9 8 8 7 8 8 8 9 11
28 28 27 26 24 22 20 17 16 15 13 16 16 15 15 15 17 17 16 16 16 14 13 11 10 8 5 4 5 6 4 7 4 9 10 8 7 8 9 9 9 10 10
26 25 25 24 24 22 22 20 21 20 18 19 17 15 15 17 18 17 18 18 18 16 15 14 12 10 7 9 11 13 12 8 5 5 8 10 8 9 9 9 10 11 12
25 26 26 26 25 24 24 23 22 22 19 16 16 16 16 16 17 18 19 19 19 17 16 14 13 11 11 14 11 8 9 9 8 7 8 9 9 10 9 11 11 12 14
26 27 27 28 28 26 21 21 21 21 21 16 19 19 19 19 19 19 19 19 17 15 15 14 12 11 12 11 10 10 10 9 9 10 9 12 12 13 9 10 11 13 13
Wind_Direction
167 160 160 157 155 156 156 155 152 150 148 145 144 141 140 136 133 128 123 119 119 116 113 111 112 109 101 95 93 91 91 89 83 75 72 66 62 61 65 73 62 56 58
161 160 159 156 150 155 157 156 154 152 149 148 145 144 139 135 132 126 124 122 121 117 118 115 115 108 101 99 97 95 92 89 84 78 65 66 61 57 58 60 65 61 60
159 162 158 156 154 156 160 157 154 152 150 149 145 141 136 133 130 126 124 123 122 122 120 118 115 110 106 101 96 92 88 84 80 78 73 66 61 57 55 56 56 56 57
159 161 164 160 157 158 157 156 154 153 150 145 140 137 134 132 129 127 122 118 116 117 122 120 119 113 109 101 93 89 85 80 76 69 67 64 61 57 56 57 56 58 56
161 162 163 163 161 160 159 157 155 151 145 142 139 136 133 132 130 124 120 117 115 115 117 119 120 116 110 101 95 91 84 78 74 69 66 65 63 60 62 67 60 58 58
159 160 166 164 164 162 158 155 150 145 143 141 140 138 136 135 130 126 122 123 123 122 121 121 120 115 109 103 99 93 85 79 69 66 66 66 66 70 68 65 62 59 60
156 154 159 161 160 156 154 152 150 148 144 142 141 136 136 134 132 129 127 124 122 121 122 121 118 114 110 102 96 87 84 80 68 64 66 66 70 72 68 66 64 65 64
154 152 152 151 149 152 155 156 150 147 144 144 141 139 137 137 134 133 128 122 119 118 120 121 118 116 110 103 93 92 82 77 65 64 67 64 75 70 68 65 68 68 69
151 144 148 147 144 148 155 152 147 148 145 145 143 143 139 139 135 131 129 125 123 121 121 121 122 118 114 106 102 92 81 79 59 61 63 64 81 77 74 70 69 70 72
141 136 144 147 146 139 144 147 151 151 150 146 141 140 138 137 136 131 130 130 128 125 126 127 124 123 118 112 103 89 75 64 55 51 52 51 95 87 80 77 73 76 77
131 137 147 139 132 137 156 156 152 151 150 144 144 143 135 136 134 127 137 135 140 138 133 130 134 130 123 112 99 92 63 48 42 37 37 109 113 102 90 86 85 89 87
120 121 136 137 133 144 137 144 136 143 144 144 148 142 148 144 142 138 137 140 141 142 140 139 138 126 102 98 88 61 55 49 24 23 24 132 78 114 108 107 105 103 100
119 116 130 135 136 135 146 145 146 153 148 151 150 159 157 147 143 141 137 140 138 143 138 136 129 118 116 102 84 69 48 26 15 12 357 263 194 56 162 134 122 117 111
133 136 137 141 141 145 139 148 150 146 157 159 168 170 158 154 153 154 158 160 158 156 150 140 136 128 121 105 92 57 37 13 360 356 356 359 275 229 276 189 146 138 130
142 129 145 151 151 148 156 149 157 180 161 168 185 169 171 164 162 164 162 159 160 149 148 143 143 138 126 98 75 48 18 9 11 6 350 336 307 279 241 246 181 164 151
132 135 148 154 158 157 161 182 195 173 174 187 185 179 176 170 172 174 167 160 150 153 152 152 155 145 132 111 72 44 20 21 18 18 355 354 3 3 289 225 207 182 175
152 151 159 162 161 166 164 188 190 193 190 187 185 184 183 178 177 175 170 160 161 165 153 150 147 146 130 96 50 30 18 20 11 9 353 348 354 3 329 179 169 187 220
158 163 166 177 174 187 186 187 191 191 187 189 188 190 194 192 185 178 170 171 171 162 165 168 167 151 130 72 34 347 308 298 298 334 338 7 352 11 12 227 184 201 204
180 182 183 181 190 200 196 193 196 195 191 192 197 194 196 192 184 179 181 178 171 172 171 172 166 158 142 167 245 263 282 268 258 228 202 184 110 330 292 279 261 244 244
186 187 184 189 199 202 194 196 197 197 198 201 201 201 197 195 195 186 191 181 176 180 172 172 162 154 156 229 276 260 284 249 229 226 221 232 245 233 271 275 268 256 266
194 194 197 200 204 207 201 196 194 198 201 205 204 203 200 202 196 195 196 185 183 182 177 166 162 156 167 208 304 276 263 240 230 225 224 253 233 263 277 273 261 264 291
198 204 207 210 208 206 208 205 204 206 206 210 215 214 205 205 198 197 197 188 185 177 173 172 171 175 175 191 307 297 284 218 225 230 242 249 250 257 289 273 267 270 285
202 202 204 206 207 206 208 202 205 203 206 206 212 207 204 204 205 201 193 188 183 182 181 179 181 182 197 214 242 277 297 294 322 210 232 249 237 271 293 284 274 274 275
208 206 208 208 211 211 209 206 205 205 212 217 218 212 206 205 206 198 192 188 186 185 186 190 187 184 182 217 225 238 255 277 275 272 204 229 249 277 289 285 281 278 276
206 208 207 208 211 212 211 213 214 220 225 223 212 203 199 200 200 196 196 192 193 189 189 191 185 190 219 222 233 231 243 247 255 273 284 282 271 278 281 286 290 289 285
208 207 207 209 213 212 208 218 228 229 225 207 209 199 199 198 199 197 199 197 198 193 188 190 194 219 240 226 241 243 248 255 263 263 270 280 291 288 281 287 289 290 288